Tracking 31027 objects as of 19-Jul-2025
HD Live streaming from Space Station
objects crossing your sky now

FENGYUN 1C DEB

Track FENGYUN 1C DEB now!
10-day predictions


NORAD ID: 37423
Int'l Code: 1999-025EGR
Perigee: 841.7 km
Apogee: 911.3 km
Inclination: 98.8 °
Period: 102.3 minutes
Semi major axis: 7247 km
RCS: 0.0095 m2 (small)
Launch date: May 10, 1999
Source: People's Republic of China (PRC)
Launch site: Taiyaun Space Center, China (TSC)

Note: This is SATELLITE DEBRIS
Your satellite tracking list
THORAD DELTA 1 DEB
Track 1 satellite(s)




NASA's NSSDC Master Catalog

Two Line Element Set (TLE):
1 37423U 99025EGR 25197.38726891  .00000752  00000-0  47076-3 0  9993
2 37423  98.8004 251.6457 0048029 218.1806 141.5957 14.07091534615096
Source of the keplerian elements: AFSPC